• In Deutschland
  • Länderverzeichnis
  • Für 7 Tage
  • Wassertemperatur
  • Satellitenkarten
  • Wetterkarte
  • Widgets
  • user-avatar
    Anmelden

    Stündliche Wetter Königsfeld im Schwarzwald

    Heute, 19 Februar, Montag

    Zeit Temperatur Niederschläge Wind Luftdruck Luftfeuchtigkeit
    00:00 -6°C° 0 mm 1 m/S 695 mmHg 93%
    01:00 -7°C° 0 mm 1 m/S 694 mmHg 93%
    02:00 -7°C° 0 mm 1 m/S 694 mmHg 93%
    03:00 -7°C° 0 mm 1 m/S 694 mmHg 92%
    04:00 -8°C° 0 mm 1 m/S 694 mmHg 92%
    05:00 -8°C° 0 mm 1 m/S 693 mmHg 92%
    06:00 -8°C° 0 mm 1 m/S 693 mmHg 92%
    07:00 -8°C° 0 mm 1 m/S 693 mmHg 91%
    08:00 -6°C° 0 mm 0 m/S 693 mmHg 88%
    09:00 -4°C° 0 mm 0 m/S 693 mmHg 85%
    10:00 -3°C° 0 mm 0 m/S 693 mmHg 82%
    11:00 -2°C° 0 mm 0 m/S 693 mmHg 80%
    12:00 -1°C° 0 mm 0 m/S 693 mmHg 78%
    13:00 +1°C° 0 mm 0 m/S 693 mmHg 76%
    14:00 +1°C° 0 mm 0 m/S 693 mmHg 75%
    15:00 +2°C° 0 mm 1 m/S 693 mmHg 75%
    16:00 +2°C° 0 mm 1 m/S 692 mmHg 74%
    17:00 0°C° 0 mm 1 m/S 692 mmHg 78%
    18:00 -2°C° 0 mm 0 m/S 692 mmHg 82%
    19:00 -4°C° 0 mm 0 m/S 692 mmHg 85%
    20:00 -4°C° 0 mm 0 m/S 692 mmHg 86%
    21:00 -4°C° 0 mm 0 m/S 691 mmHg 86%
    22:00 -5°C° 0 mm 0 m/S 691 mmHg 86%
    23:00 -5°C° 0 mm 0 m/S 691 mmHg 86%

    Morgen, 20 Februar, Dienstag

    Zeit Temperatur Niederschläge Wind Luftdruck Luftfeuchtigkeit
    00:00 -5°C° 0 mm 0 m/S 691 mmHg 86%
    01:00 -5°C° 0 mm 0 m/S 691 mmHg 85%
    02:00 -5°C° 0 mm 0 m/S 691 mmHg 85%
    03:00 -5°C° 0 mm 0 m/S 691 mmHg 85%
    04:00 -5°C° 0 mm 0 m/S 690 mmHg 84%
    05:00 -5°C° 0 mm 0 m/S 690 mmHg 84%
    06:00 -5°C° 0 mm 0 m/S 690 mmHg 84%
    07:00 -5°C° 0 mm 0 m/S 690 mmHg 84%
    08:00 -4°C° 0 mm 0 m/S 690 mmHg 81%
    09:00 -3°C° 0 mm 0 m/S 690 mmHg 78%
    10:00 -1°C° 0 mm 0 m/S 690 mmHg 75%
    11:00 0°C° 0 mm 1 m/S 690 mmHg 73%
    12:00 +1°C° 0 mm 1 m/S 690 mmHg 71%
    13:00 +2°C° 0 mm 1 m/S 690 mmHg 70%
    14:00 +1°C° 0 mm 2 m/S 690 mmHg 70%
    15:00 -1°C° 0 mm 2 m/S 690 mmHg 71%
    16:00 -1°C° 0 mm 2 m/S 690 mmHg 72%
    17:00 -2°C° 0 mm 2 m/S 690 mmHg 76%
    18:00 -4°C° 0 mm 2 m/S 690 mmHg 81%
    19:00 -5°C° 0 mm 2 m/S 690 mmHg 86%
    20:00 -6°C° 0 mm 2 m/S 690 mmHg 87%
    21:00 -6°C° 0 mm 2 m/S 690 mmHg 88%
    22:00 -7°C° 0 mm 2 m/S 691 mmHg 90%
    23:00 -7°C° 0 mm 2 m/S 691 mmHg 91%

    übermorgen, 21 Februar, Mittwoch

    Zeit Temperatur Niederschläge Wind Luftdruck Luftfeuchtigkeit
    00:00 -7°C° 0 mm 2 m/S 691 mmHg 91%
    01:00 -7°C° 0 mm 2 m/S 691 mmHg 92%
    02:00 -7°C° 0 mm 2 m/S 691 mmHg 92%
    03:00 -7°C° 0 mm 2 m/S 692 mmHg 92%
    04:00 -7°C° 0 mm 2 m/S 692 mmHg 93%
    05:00 -7°C° 0 mm 2 m/S 692 mmHg 93%
    06:00 -7°C° 0 mm 2 m/S 692 mmHg 93%
    07:00 -6°C° 0 mm 2 m/S 692 mmHg 93%
    08:00 -7°C° 0 mm 3 m/S 693 mmHg 89%
    09:00 -6°C° 0 mm 3 m/S 693 mmHg 86%
    10:00 -5°C° 0 mm 3 m/S 693 mmHg 83%
    11:00 -4°C° 0 mm 4 m/S 693 mmHg 79%
    12:00 -3°C° 0 mm 4 m/S 693 mmHg 75%
    13:00 -2°C° 0 mm 4 m/S 693 mmHg 72%
    14:00 -2°C° 0 mm 4 m/S 692 mmHg 71%
    15:00 -2°C° 0 mm 4 m/S 692 mmHg 70%
    16:00 -2°C° 0 mm 4 m/S 692 mmHg 69%
    17:00 -2°C° 0 mm 3 m/S 692 mmHg 73%
    18:00 -5°C° 0 mm 3 m/S 692 mmHg 77%
    19:00 -5°C° 0 mm 2 m/S 691 mmHg 81%
    20:00 -5°C° 0 mm 2 m/S 691 mmHg 82%
    21:00 -7°C° 0 mm 3 m/S 691 mmHg 82%
    22:00 -7°C° 0 mm 3 m/S 691 mmHg 83%
    23:00 -7°C° 0 mm 3 m/S 691 mmHg 84%

    22 Februar, Donnerstag

    Zeit Temperatur Niederschläge Wind Luftdruck Luftfeuchtigkeit
    00:00 -7°C° 0 mm 3 m/S 691 mmHg 85%
    01:00 -7°C° 0 mm 3 m/S 690 mmHg 86%
    02:00 -8°C° 0 mm 3 m/S 690 mmHg 85%
    03:00 -9°C° 0 mm 4 m/S 690 mmHg 85%
    04:00 -9°C° 0 mm 4 m/S 689 mmHg 85%
    05:00 -9°C° 0 mm 4 m/S 689 mmHg 84%
    06:00 -9°C° 0 mm 4 m/S 689 mmHg 84%
    07:00 -9°C° 0 mm 4 m/S 689 mmHg 84%
    08:00 -8°C° 0 mm 5 m/S 689 mmHg 81%
    09:00 -8°C° 0 mm 5 m/S 689 mmHg 78%
    10:00 -8°C° 0 mm 6 m/S 689 mmHg 75%
    11:00 -6°C° 0 mm 6 m/S 689 mmHg 73%
    12:00 -5°C° 0 mm 6 m/S 689 mmHg 71%
    13:00 -5°C° 0 mm 6 m/S 689 mmHg 69%
    14:00 -5°C° 0 mm 6 m/S 689 mmHg 69%
    15:00 -5°C° 0 mm 6 m/S 688 mmHg 70%
    16:00 -5°C° 0 mm 5 m/S 688 mmHg 70%
    17:00 -5°C° 0 mm 5 m/S 689 mmHg 73%
    18:00 -6°C° 0 mm 5 m/S 689 mmHg 75%
    19:00 -6°C° 0 mm 5 m/S 689 mmHg 77%
    20:00 -7°C° 0 mm 5 m/S 689 mmHg 78%
    21:00 -7°C° 0 mm 5 m/S 689 mmHg 79%
    22:00 -7°C° 0 mm 5 m/S 689 mmHg 80%
    23:00 -7°C° 0 mm 5 m/S 689 mmHg 80%

    23 Februar, Freitag

    Zeit Temperatur Niederschläge Wind Luftdruck Luftfeuchtigkeit
    00:00 -7°C° 0 mm 5 m/S 689 mmHg 80%
    01:00 -8°C° 0 mm 5 m/S 689 mmHg 80%
    02:00 -8°C° 0 mm 5 m/S 689 mmHg 80%
    03:00 -8°C° 0 mm 4 m/S 688 mmHg 80%
    04:00 -8°C° 0 mm 4 m/S 688 mmHg 81%
    05:00 -8°C° 0 mm 4 m/S 688 mmHg 80%
    06:00 -8°C° 0 mm 4 m/S 688 mmHg 80%
    07:00 -8°C° 0 mm 4 m/S 688 mmHg 80%
    08:00 -8°C° 0 mm 4 m/S 689 mmHg 77%
    09:00 -7°C° 0 mm 5 m/S 689 mmHg 75%
    10:00 -6°C° 0 mm 5 m/S 689 mmHg 73%
    11:00 -6°C° 0 mm 5 m/S 689 mmHg 71%
    12:00 -5°C° 0 mm 5 m/S 689 mmHg 69%
    13:00 -4°C° 0 mm 5 m/S 689 mmHg 67%
    14:00 -4°C° 0 mm 5 m/S 689 mmHg 67%
    15:00 -4°C° 0 mm 5 m/S 689 mmHg 67%
    16:00 -4°C° 0 mm 5 m/S 689 mmHg 67%
    17:00 -5°C° 0 mm 5 m/S 689 mmHg 69%
    18:00 -6°C° 0 mm 5 m/S 690 mmHg 71%
    19:00 -7°C° 0 mm 4 m/S 690 mmHg 73%
    20:00 -8°C° 0 mm 4 m/S 690 mmHg 73%
    21:00 -8°C° 0 mm 4 m/S 690 mmHg 72%
    22:00 -10°C° 0 mm 5 m/S 691 mmHg 72%
    23:00 -10°C° 0 mm 5 m/S 691 mmHg 72%

    24 Februar, Samstag

    Zeit Temperatur Niederschläge Wind Luftdruck Luftfeuchtigkeit
    00:00 -10°C° 0 mm 4 m/S 691 mmHg 72%
    01:00 -10°C° 0 mm 4 m/S 691 mmHg 71%
    02:00 -11°C° 0 mm 4 m/S 692 mmHg 72%
    03:00 -11°C° 0 mm 4 m/S 692 mmHg 72%
    04:00 -12°C° 0 mm 4 m/S 692 mmHg 72%
    05:00 -12°C° 0 mm 4 m/S 692 mmHg 72%
    06:00 -12°C° 0 mm 4 m/S 692 mmHg 71%
    07:00 -14°C° 0 mm 4 m/S 693 mmHg 71%
    08:00 -12°C° 0 mm 4 m/S 693 mmHg 66%
    09:00 -12°C° 0 mm 5 m/S 694 mmHg 61%
    10:00 -11°C° 0 mm 5 m/S 694 mmHg 57%
    11:00 -11°C° 0 mm 5 m/S 694 mmHg 54%
    12:00 -10°C° 0 mm 5 m/S 694 mmHg 51%
    13:00 -8°C° 0 mm 5 m/S 694 mmHg 49%
    14:00 -8°C° 0 mm 5 m/S 694 mmHg 49%
    15:00 -8°C° 0 mm 5 m/S 694 mmHg 49%
    16:00 -8°C° 0 mm 5 m/S 694 mmHg 49%
    17:00 -9°C° 0 mm 4 m/S 694 mmHg 54%
    18:00 -11°C° 0 mm 4 m/S 694 mmHg 58%
    19:00 -12°C° 0 mm 3 m/S 695 mmHg 63%
    20:00 -12°C° 0 mm 3 m/S 695 mmHg 63%
    21:00 -12°C° 0 mm 3 m/S 695 mmHg 63%
    22:00 -13°C° 0 mm 3 m/S 695 mmHg 63%
    23:00 -13°C° 0 mm 3 m/S 695 mmHg 64%
    Mehr zeigen